[[{"header":{"parameterUnit":"m.s-1","parameterCategory":1,"la1":30.2991,"la2":30.254,"lo1":-89.0895,"lo2":-89.0444,"dy":0.0017,"dx":0.0017,"nx":28,"ny":28,"refTime":"2025-05-16T09:00:00:Z","depth":0,"parameterNumber":2,"parameterNumberName":"U-component_of_WINDS"},"data":[0,0,0,0,0,0,0,0,0,0,0,0,0,0,0,0,0,0,0,0,0,0,0,0,0,0,0,0,0,0,0,0,0,0,0,0,0,0,0,0,0,0,0,0,0,0,0,0,0,0,0,0,0,0,0,0,0,0,2.4288,2.4289,0,2.4369,2.437,2.4371,2.4354,2.4352,2.4351,2.4349,2.4431,2.4435,2.4438,0,0,0,0,0,0,0,0,0,0,0,0,0,2.4117,2.4121,2.4288,2.4289,2.429,2.4369,2.437,2.4371,2.4354,2.4352,2.435,2.4348,2.443,2.4434,2.4438,0,0,0,0,0,0,0,0,0,0,0,0,0,2.4194,2.4122,2.4288,2.4291,2.4292,2.4369,2.437,2.4371,2.4354,2.4352,2.435,2.4348,2.4428,2.4434,2.4439,2.4517,0,0,2.4455,2.4458,0,0,0,0,0,0,0,0,2.419,2.42,2.429,2.4291,2.4292,2.4349,2.434,2.442,2.4355,2.4331,2.4349,2.4346,2.4405,2.4413,2.4433,2.4521,2.4525,2.4456,2.4459,2.4461,2.4463,0,0,0,0,0,0,0,2.4185,2.4197,2.432,2.4291,2.4293,2.4288,2.4296,2.4355,2.438,2.4333,2.4332,2.4341,2.4406,2.4428,2.4434,2.4526,2.4456,2.446,2.4464,2.4466,2.468,2.4683,0,0,0,0,0,0,2.4178,2.4193,2.4318,2.4323,2.4235,2.4293,2.4302,2.4333,2.4379,2.4384,2.4343,2.434,2.4419,2.4428,2.4437,2.453,2.4461,2.4466,2.447,2.4678,2.4681,2.4684,0,0,0,0,0,0,2.4175,2.419,2.4314,2.4257,2.4273,2.4298,2.4333,2.4336,2.4358,2.4387,2.4391,2.4361,2.4418,2.443,2.4497,2.4533,2.4469,2.4474,2.4675,2.4679,2.4682,2.4718,0,0,0,0,0,0,2.417,2.4188,2.4219,2.4258,2.4276,2.4373,2.4335,2.4339,2.4367,2.4364,2.4405,2.4409,2.4417,2.4489,2.4502,2.4539,2.4478,2.4672,2.4677,2.4681,2.4713,2.4722,2.473,0,0,0,0,0,2.4164,2.4226,2.422,2.4235,2.4315,2.4375,2.4386,2.4393,2.437,2.44,2.4419,2.4408,2.4527,2.4496,2.4511,2.455,2.467,2.4675,2.4681,2.471,2.472,2.4729,0,0,0,0,0,0,2.419,2.4231,2.4225,2.4302,2.4335,2.4372,2.4411,2.4405,2.4445,2.4441,2.4449,2.4458,2.4526,2.4545,2.451,2.4627,2.4595,2.4604,2.4612,2.4622,2.463,2.4623,2.4482,0,0,0,0,0,2.4204,2.4251,2.4284,2.4349,2.4366,2.4385,2.4412,2.4416,2.445,2.4464,2.4488,2.4522,2.4566,2.4596,2.4639,2.4717,2.4724,2.4751,2.4759,2.4765,2.4772,2.4813,2.4824,2.4702,2.4702,2.4702,0,0,2.4235,2.4263,2.4292,2.4354,2.4381,2.4427,2.4397,2.4449,2.4483,2.4472,2.4536,2.4555,2.4593,2.4666,2.4699,2.4683,2.4808,2.4772,2.4777,2.4781,2.482,2.4831,2.4841,2.4706,2.4705,2.4704,0,0,2.4314,2.4341,2.4397,2.4424,2.4464,2.4476,2.449,2.4528,2.454,2.4605,2.4596,2.4638,2.4715,2.4742,2.4766,2.4855,2.4846,2.4869,2.4911,2.495,2.496,2.4968,2.4998,2.5009,2.4876,2.4876,2.4876,0,2.4347,2.4418,2.4426,2.4478,2.4505,2.4497,2.4553,2.4578,2.463,2.4649,2.4631,2.4727,2.4753,2.483,2.4852,2.4872,2.4886,2.4864,2.4958,2.4967,2.4975,2.5003,2.5014,2.4879,2.4879,2.4878,2.4878,0,2.4455,2.4504,2.4544,2.4594,2.4626,2.468,2.4696,2.4727,2.4727,2.4742,2.4807,2.4837,2.4885,2.4905,2.4906,2.4982,2.4971,2.4956,2.4923,2.4988,2.5015,2.5026,2.4882,2.4881,2.4881,2.488,0,0,2.4552,2.4606,2.462,2.4642,2.4685,2.4723,2.4776,2.4823,2.4849,2.4886,2.4929,2.4995,2.498,2.5007,2.5012,2.5047,2.5113,2.5027,2.5028,2.504,2.5196,2.5206,2.5219,2.5108,2.511,2.5112,2.5192,0,2.4633,2.4726,2.4735,2.4818,2.4863,2.4856,2.4902,2.4933,2.4948,2.4988,2.5004,2.505,2.5029,2.5045,2.5079,2.5097,2.5144,2.5092,2.5147,2.5148,2.5135,2.5233,2.5244,2.5318,2.5203,2.5205,2.5206,0,2.474,2.4779,2.4867,2.4903,2.4922,2.4963,2.5006,2.5045,2.508,2.5088,2.5118,2.5118,2.5171,2.5138,2.5211,2.5175,2.5199,2.5211,2.5214,2.5218,2.518,2.5237,2.5343,2.5353,2.5223,2.5222,2.5221,0,2.4799,2.4874,2.4936,2.4955,2.4999,2.5028,2.5048,2.508,2.5108,2.5146,2.5163,2.5207,2.5231,2.5264,2.5275,2.5251,2.5347,2.5315,2.5354,2.5354,2.5373,2.5371,2.5481,2.5392,2.5391,2.5391,2.5391,0,2.4888,2.4941,2.4962,2.5,2.5059,2.5069,2.5127,2.5145,2.5174,2.5215,2.5212,2.525,2.5263,2.5303,2.5312,2.537,2.5381,2.5388,2.539,2.5387,2.5386,2.5401,2.5395,2.5394,2.5393,2.5393,2.5392,0,2.4963,2.498,2.5046,2.5082,2.5093,2.5134,2.5165,2.5201,2.5216,2.5267,2.5279,2.5302,2.5348,2.5363,2.542,2.5426,2.5493,2.5491,2.5481,2.548,2.5517,2.5513,2.5639,2.5655,2.5557,2.5558,2.5558,0,2.5017,2.5058,2.5099,2.5126,2.5147,2.519,2.5218,2.5229,2.5258,2.5301,2.5331,2.5378,2.5415,2.549,2.5511,2.5554,2.5551,2.5592,2.5557,2.5553,2.5549,2.5546,2.5549,2.5598,2.5599,2.56,2.5601,0,2.5111,2.5117,2.5158,2.5201,2.5234,2.5269,2.5302,2.5324,2.534,2.5373,2.5421,2.545,2.5507,2.5552,2.5596,2.5616,2.561,2.5612,2.5623,2.562,2.5611,2.5614,2.5496,2.5609,2.5608,2.5607,2.5607,2.5606,2.5176,2.5211,2.5245,2.529,2.5316,2.5347,2.5382,2.5401,2.5441,2.5489,2.5493,2.5544,2.5577,2.5635,2.5657,2.5697,2.5685,2.5701,2.5705,2.5708,2.571,2.5607,2.5705,2.5705,2.5705,2.5704,2.5704,0,2.5268,2.529,2.5331,2.5377,2.5412,2.5406,2.5442,2.5471,2.5516,2.5548,2.5585,2.5639,2.5683,2.5707,2.5751,2.5778,2.5776,2.5789,2.5785,2.579,2.5719,2.5704,2.5789,2.5789,2.5789,2.5789,2.5789,2.5789,2.532,2.5378,2.5389,2.546,2.5481,2.5531,2.5552,2.558,2.5605,2.5666,2.5702,2.5718,2.5747,2.5792,2.5832,2.5838,2.5853,2.5866,2.5871,2.5804,2.5795,2.5787,2.5773,2.587,2.587,2.5938,2.5938,2.5939]},{"header":{"parameterUnit":"m.s-1","parameterCategory":1,"la1":30.2991,"la2":30.254,"lo1":-89.0895,"lo2":-89.0444,"dy":0.0017,"dx":0.0017,"nx":28,"ny":28,"refTime":"2025-05-16T09:00:00:Z","depth":0,"parameterNumber":3,"parameterNumberName":"V-component_of_WINDS"},"data":[0,0,0,0,0,0,0,0,0,0,0,0,0,0,0,0,0,0,0,0,0,0,0,0,0,0,0,0,0,0,0,0,0,0,0,0,0,0,0,0,0,0,0,0,0,0,0,0,0,0,0,0,0,0,0,0,0,0,3.0831,3.0831,0,3.0889,3.0889,3.089,3.0868,3.0867,3.0865,3.0864,3.092,3.0923,3.0926,0,0,0,0,0,0,0,0,0,0,0,0,0,3.0697,3.0699,3.0831,3.0831,3.0832,3.0889,3.0889,3.089,3.0868,3.0867,3.0865,3.0863,3.0919,3.0923,3.0926,0,0,0,0,0,0,0,0,0,0,0,0,0,3.0755,3.07,3.083,3.0828,3.0828,3.0888,3.0889,3.089,3.0869,3.0867,3.0865,3.0863,3.0918,3.0922,3.0926,3.0991,0,0,3.0939,3.0941,0,0,0,0,0,0,0,0,3.0752,3.076,3.0828,3.0828,3.0829,3.0869,3.0863,3.0924,3.0869,3.0853,3.0864,3.0862,3.0905,3.091,3.0925,3.0994,3.0997,3.0939,3.0942,3.0944,3.0945,0,0,0,0,0,0,0,3.0748,3.0757,3.0853,3.0829,3.0829,3.0823,3.0829,3.0874,3.0889,3.0854,3.0853,3.086,3.0905,3.0921,3.0926,3.0997,3.0939,3.0943,3.0945,3.0947,3.1121,3.1123,0,0,0,0,0,0,3.0744,3.0754,3.0852,3.0855,3.0785,3.0827,3.0833,3.0858,3.0889,3.0892,3.0862,3.0859,3.0915,3.0921,3.0928,3.1006,3.0944,3.0947,3.095,3.1119,3.1122,3.1124,0,0,0,0,0,0,3.0741,3.0753,3.0849,3.0804,3.0816,3.0831,3.0859,3.086,3.0877,3.0894,3.0897,3.0876,3.0914,3.0922,3.0976,3.1007,3.0949,3.0953,3.1117,3.112,3.1123,3.1162,0,0,0,0,0,0,3.0737,3.0752,3.0778,3.0805,3.0819,3.0898,3.0861,3.0863,3.0884,3.0881,3.0909,3.0911,3.0913,3.097,3.098,3.1012,3.0956,3.1114,3.1118,3.1122,3.1158,3.1166,3.1173,0,0,0,0,0,3.0733,3.0786,3.0779,3.0791,3.0851,3.0899,3.0907,3.0909,3.0887,3.0912,3.0923,3.091,3.1002,3.0975,3.0987,3.102,3.1112,3.1117,3.1122,3.1154,3.1165,3.1173,0,0,0,0,0,0,3.0761,3.079,3.0782,3.0847,3.0871,3.0896,3.0928,3.0919,3.095,3.0945,3.0945,3.0951,3.1007,3.1019,3.0988,3.1084,3.1054,3.1061,3.1075,3.1084,3.1092,3.1088,3.096,0,0,0,0,0,3.0775,3.0813,3.0835,3.0889,3.0902,3.0913,3.0934,3.0933,3.0958,3.0968,3.0983,3.1006,3.104,3.1063,3.1095,3.1159,3.1164,3.1188,3.1195,3.1202,3.1208,3.1242,3.1252,3.114,3.114,3.114,0,0,3.0804,3.0824,3.0848,3.0896,3.0914,3.0952,3.0922,3.0963,3.0991,3.0974,3.1026,3.1037,3.1063,3.1122,3.1149,3.1134,3.124,3.1208,3.1213,3.1216,3.1248,3.1258,3.1268,3.1144,3.1143,3.1142,0,0,3.0876,3.0896,3.0943,3.0962,3.0991,3.0998,3.1009,3.1035,3.1043,3.1095,3.1082,3.1114,3.1173,3.1192,3.121,3.1288,3.1276,3.1298,3.1338,3.1371,3.138,3.1388,3.1415,3.1425,3.1304,3.1304,3.1304,0,3.0909,3.0967,3.0968,3.1011,3.1031,3.1018,3.1065,3.1083,3.1121,3.1135,3.1118,3.1191,3.1208,3.127,3.1289,3.1304,3.1316,3.1295,3.1379,3.1386,3.1394,3.142,3.143,3.1307,3.1307,3.1306,3.1306,0,3.1004,3.1044,3.1078,3.1116,3.1141,3.1185,3.1192,3.1216,3.1213,3.1221,3.1273,3.1293,3.1329,3.1343,3.134,3.1405,3.1395,3.1378,3.1348,3.1407,3.1431,3.1441,3.131,3.1309,3.1309,3.1308,0,0,3.1097,3.1135,3.1147,3.1164,3.1194,3.1224,3.1267,3.1303,3.1324,3.135,3.1385,3.1435,3.1419,3.1439,3.1438,3.1467,3.1526,3.1446,3.1447,3.146,3.1599,3.1611,3.1623,3.1519,3.1521,3.1522,3.1596,0,3.1172,3.1249,3.1251,3.1321,3.1357,3.1344,3.1382,3.1404,3.1412,3.1443,3.1451,3.1487,3.1464,3.1475,3.1503,3.1513,3.1554,3.1508,3.1551,3.1553,3.1545,3.1636,3.165,3.1719,3.1606,3.1608,3.1609,0,3.127,3.1299,3.1374,3.1398,3.1413,3.1447,3.1479,3.151,3.1533,3.1537,3.1559,3.1553,3.1595,3.1563,3.1621,3.1589,3.1606,3.1614,3.1617,3.1621,3.1585,3.1643,3.1741,3.1752,3.1624,3.1623,3.1622,0,3.133,3.1388,3.144,3.1455,3.1484,3.1508,3.1521,3.1543,3.1565,3.1592,3.1606,3.1638,3.1655,3.1679,3.1681,3.1658,3.174,3.1707,3.1743,3.1743,3.1762,3.176,3.1864,3.1772,3.1772,3.1772,3.1772,0,3.1413,3.1459,3.1468,3.15,3.155,3.155,3.16,3.1611,3.163,3.1663,3.1653,3.1684,3.1685,3.1716,3.1717,3.1765,3.1773,3.1776,3.1776,3.1777,3.1777,3.1789,3.1784,3.1775,3.1774,3.1774,3.1773,0,3.149,3.1497,3.1553,3.1576,3.1583,3.1619,3.1638,3.1668,3.1675,3.1716,3.1726,3.1737,3.1772,3.1777,3.1818,3.1819,3.1876,3.1871,3.1869,3.1868,3.1904,3.19,3.2019,3.2035,3.1933,3.1934,3.1934,0,3.1543,3.1578,3.1605,3.1627,3.1641,3.1676,3.1698,3.1699,3.1722,3.1751,3.1777,3.1812,3.184,3.1897,3.1908,3.1939,3.1935,3.1974,3.1939,3.1939,3.1935,3.1933,3.1936,3.1981,3.1982,3.1983,3.1984,0,3.1636,3.1638,3.167,3.1703,3.1729,3.1755,3.1779,3.1797,3.1801,3.1827,3.1864,3.1885,3.1928,3.1962,3.1993,3.2005,3.1995,3.1994,3.2004,3.2006,3.2003,3.2005,3.1887,3.1992,3.1991,3.199,3.199,3.199,3.1702,3.1732,3.1756,3.1792,3.181,3.1833,3.1862,3.1872,3.1903,3.1939,3.1937,3.1978,3.1999,3.2039,3.2054,3.2084,3.2071,3.2086,3.2089,3.2093,3.2097,3.1998,3.209,3.209,3.2089,3.2089,3.2089,0,3.1795,3.1809,3.1842,3.1877,3.1904,3.1893,3.1918,3.1942,3.1978,3.1999,3.2027,3.2069,3.2102,3.2115,3.2147,3.2169,3.2165,3.2177,3.2176,3.2179,3.2107,3.2095,3.218,3.218,3.218,3.218,3.218,3.218,3.1846,3.1897,3.1901,3.196,3.1974,3.2014,3.203,3.205,3.2067,3.2115,3.2142,3.2151,3.2168,3.2201,3.223,3.2233,3.2245,3.226,3.2261,3.2193,3.2184,3.2175,3.2164,3.2262,3.2263,3.233,3.2331,3.2331]}]]